Weather in Mlinovci

Ukraine / Ternopil District     49°52′16″N   25°38′43″E
temp.,
°C
wind,
m/s
gust,
m/s
humid.,
%
clouds,
%
prec.,
mm/h
press.,
hPa
HPBL,
m
18 april, sun
sun1800:00+4wsw228596 0.0 102067
03:00+3nw11867 0.0 102011
06:00+2nnw11895 0.0 102010
09:00+5nnw007782 0.0 1019254
12:00+9nne1163100 0.0 1019943
15:00+11n2255100 0.0 10181266
18:00+11nne2255100 0.0 10171292
21:00+10n2268100 0.0 101839
19 april, mon
mon1900:00+9n1177100 0.1 101725
03:00+8nnw2388100 0.4 1017139
06:00+7nne2398100 1.0 1016225
09:00+7ne3597100 2.9 1017334
12:00+7se2392100 1.4 1017272
15:00+9ene548087 1.4 1016701
18:00+9ene5678100 0.0 1016725
21:00+7ne3787100 0.1 1016291
20 april, tue
tue2000:00+6ene378672 0.0 1015181
03:00+4ne4993100 0.0 1014204
06:00+3ne3895100 0.0 1014201
09:00+6ne488289 0.0 1013511
12:00+10nne666095 0.3 10121564
15:00+11n665542 0.6 10111624
18:00+9n566697 0.1 10111090
21:00+5nne367986 0.1 1012190
21 april, wed
wed2100:00+5nw238065 0.0 101249
03:00+4nw358888 0.0 1012155
06:00+3nw229280 0.0 101341
09:00+7wnw357617 0.0 1013493
12:00+10wsw4566100 0.6 10131157
15:00+12w5752100 1.5 10131847
18:00+13w574923 0.1 10121971
21:00+9wsw347199 0.3 101580
22 april, thu
thu2200:00+7sw388773 0.2 1016168
03:00+6sw388780 0.3 1017163
06:00+5ssw348721 0.0 101767
09:00+10ssw467040 0.0 1018328
12:00+12sw4663100 0.0 1019679
15:00+15wsw454879 0.2 10181920
18:00+12wnw457232 0.8 1020457
21:00+9nne228219 0.9 102114